Regional Weather Roundup
Issued by NWS

Home | Current Version | Previous Version | Graphics & Text | Print | Product List | Glossary On
Versions: 1 2 3 4 5 6 7 8 9 10 11 12 13 14 15 16 17 18 19 20 21 22 23 24 25 26 27 28 29 30 31 32 33 34 35 36 37 38 39 40 41 42 43 44 45 46 47 48 49 50
000
ASUS43 KLOT 030321
RWRIL

ILLINOIS REGIONAL WEATHER ROUNDUP
NATIONAL WEATHER SERVICE CHICAGO/ROMEOVILLE IL
1000 PM CDT THU JUL 02 2015

NOTE: "FAIR" INDICATES FEW OR NO CLOUDS BELOW 12,000 FEET WITH NO
SIGNIFICANT WEATHER AND/OR OBSTRUCTIONS TO VISIBILITY.

* THESE STATIONS ARE NOT UNDER NWS QUALITY CONTROL. THEY ALSO MAY NOT
  REPORT WEATHER SUCH AS PRECIPITATION OR FOG.

ILZ001-002-007-009-015-016-024-030400-
NORTHWEST ILLINOIS

CITY           SKY/WX    TMP DP  RH WIND       PRES   REMARKS
MOLINE         MOCLDY    63  58  83 CALM      29.96S
STERLING*      CLOUDY    61  55  82 NE6       29.98S
SAVANNA*       CLOUDY    61  55  78 CALM      29.98R
$$

ILZ003-004-008-010-011-017-018-030400-
NORTH CENTRAL ILLINOIS

CITY           SKY/WX    TMP DP  RH WIND       PRES   REMARKS
ROCKFORD       CLOUDY    63  53  70 E5        30.00R
FREEPORT*      CLOUDY    58  53  84 NE3       30.01R
ROCHELLE*      MOCLDY    61  56  83 NE7       29.99S
DE KALB*       MOCLDY    56  53  88 NE6       30.00R
PERU*          MOCLDY    63  56  79 NE7       29.98R
$$

ILZ005-006-012>014-019>023-030400-
NORTHEAST ILLINOIS

CITY           SKY/WX    TMP DP  RH WIND       PRES   REMARKS
CHICAGO-OHARE  CLOUDY    58  49  72 N6        30.00R
CHICAGO-MIDWAY CLOUDY    62  52  69 N9        30.00R
AURORA         FAIR      62  51  67 NE9       29.99R
LANSING*       MOCLDY    59  53  79 N6        29.99R
JOLIET*        MOCLDY    62  54  76 NE7       29.99R
WAUKEGAN       FAIR      55  48  77 N5        30.00R
DUPAGE AIRPORT MOCLDY    59  51  75 NE8       29.99R
KANKAKEE*      MOCLDY    60  56  88 NE10      29.97R
WHEELING       PTCLDY    58  48  69 N6        30.02R
MORRIS*        MOCLDY    62  55  77 NE5       29.96R
ROMEOVILLE*    MOCLDY    59  50  72 NE13      29.99R
NORTHERLY ISL    N/A     58  51  78 N6          N/A
$$

LMZ740>746-030400-
SOUTHERN LAKE MICHIGAN

STATION/POSITION SKY/WX   TEMP    WIND        PRES    VSBY  WAVE
                          AIR SEA DIR/SP/G                  HT/PER
                          (F)     (DEG/KT/KT) (MB)    (MI)  (FT/S)
HARRISON CRIB              59      10/ 11/ 14   N/A
BURNHAM HARBOR             58     350/  4/ 12   N/A
CALUMET HARBOR             59     350/  7/  9   N/A
BURNS HARBOR               63      50/ 16/ 19 1015.2F
MICHIGAN CITY              60      30/ 12/ 13   N/A
MICHIGAN CITY 6N           63 63   60/ 12/ 16   N/A           4/ 5
ST. JOSEPH                 59 62                N/A           3/ 5
$$

ILZ025>027-034>036-040-047-049-050-058-095>099-030400-
WEST-CENTRAL ILLINOIS

CITY           SKY/WX    TMP DP  RH WIND       PRES   REMARKS
QUINCY         CLOUDY    65  61  87 NE3       29.93S
GALESBURG*     CLOUDY    63  58  86 N7        29.96S
MACOMB*        CLOUDY    64  60  87 N3        29.97R
JACKSONVILLE*  CLOUDY    67  64  90 NW3       29.93R
PITTSFIELD*    CLOUDY    66  62  85 CALM      29.95R
$$

ILZ028>032-037-038-041>044-048-051>054-059>061-030400-
CENTRAL ILLINOIS

CITY           SKY/WX    TMP DP  RH WIND       PRES   REMARKS
PONTIAC        MOCLDY    65  58  80 NE13      29.97R
BLOOMINGTON    MOCLDY    65  61  87 NE9       29.96R
DECATUR        CLOUDY    68  61  78 NE8       29.92R
PEORIA         CLOUDY    69  58  67 NE6       29.95R
LACON*         MOCLDY    63  56  80 CALM      29.96R
LINCOLN*       CLOUDY    68  61  77 NE8       29.94R
SPRINGFIELD    CLOUDY    69  62  78 N8        29.92R
TAYLORVILLE    CLOUDY    64  63  94 CALM      29.92R
$$

ILZ033-039-045-046-055>057-062-063-030400-
EAST-CENTRAL ILLINOIS

CITY           SKY/WX    TMP DP  RH WIND       PRES   REMARKS
CHAMPAIGN      MOCLDY    70  58  65 N10       29.92R
DANVILLE*      PTCLDY    66  63  88 N7        29.91R
RANTOUL*       PTCLDY    68  62  81 N12       29.94R
MATTOON        MOCLDY    69  65  86 N6        29.90R
PARIS*         CLOUDY    70  65  83 NE5       29.91R
$$

ILZ079-100>102-030400-
SOUTHWEST ILLINOIS

CITY           SKY/WX    TMP DP  RH WIND       PRES   REMARKS
ALTON          MOCLDY    68  68 100 N6        29.91
BELLEVILLE     MOCLDY    70  65  85 N6        29.88F
CAHOKIA*       MOCLDY    71  63  75 NE7       29.89F
SPARTA*        CLOUDY    73  68  84 N3        29.89S
$$

ILZ064>066-069>071-074>076-080>082-084>086-088>090-092>094-030400-
SOUTH-CENTRAL ILLINOIS

CITY           SKY/WX    TMP DP  RH WIND       PRES   REMARKS
CARBONDALE     MOCLDY    73  69  87 CALM      29.86F
CAIRO*         CLOUDY    73  69  86 NE6       29.85S
EFFINGHAM*     CLOUDY    70  65  83 N3        29.91S
MARION         CLOUDY    73  70  88 CALM      29.88R
MT. VERNON     CLOUDY    72  64  78 N3        29.89R
CENTRALIA*     CLOUDY    71  64  78 N6        29.90R
SALEM*         CLOUDY    73  65  78 N5        29.89S
METROPOLIS*    CLOUDY    74  72  95 CALM      29.86S
$$

ILZ067-068-072-073-078-083-087-091-030400-
SOUTHEAST ILLINOIS

CITY           SKY/WX    TMP DP  RH WIND       PRES   REMARKS
LAWRENCEVILLE  CLOUDY    71  69  93 N5        29.87R
FLORA*         CLOUDY    71  67  88 N6        29.89S
FAIRFIELD*     CLOUDY    72  69  92 CALM      29.86S
HARRISBURG*    MOCLDY    73  72  97 CALM      29.88R
ROBINSON*      CLOUDY    70  69  95 CALM      29.88S
CARMI*         CLOUDY    74  67  78 N3        29.86S
$$

ABBREVIATIONS USED IN REMARKS
   TC - TEMPERATURE IN CELSIUS
  WCI - WIND CHILL INDEX
   HX - HEAT INDEX
  VSB - VISIBILITY
$$




USA.gov is the U.S. government's official web portal to all federal, state and local government web resources and services.